TimeEDT,TemperatureF,Dew PointF,Humidity,Sea Level PressureIn,VisibilityMPH,Wind Direction,Wind SpeedMPH,Gust SpeedMPH,PrecipitationIn,Events,Conditions,WindDirDegrees,DateUTC
12:53 AM,70.0,68.0,93,29.96,9.0,Calm,Calm,-,N/A,,Scattered Clouds,0,2013-07-21 04:53:00
1:53 AM,69.1,68.0,96,29.95,6.0,Calm,Calm,-,N/A,,Scattered Clouds,0,2013-07-21 05:53:00
2:53 AM,70.0,66.9,90,29.94,6.0,Calm,Calm,-,N/A,,Mostly Cloudy,0,2013-07-21 06:53:00
3:32 AM,69.1,66.9,93,30.02,2.0,Calm,Calm,-,N/A,,Mostly Cloudy,0,2013-07-21 07:32:00
3:48 AM,69.8,66.2,88,30.02,5.0,WSW,3.5,-,N/A,,Mostly Cloudy,240,2013-07-21 07:48:00
3:53 AM,70.0,68.0,93,29.94,9.0,SW,3.5,-,N/A,,Mostly Cloudy,220,2013-07-21 07:53:00
4:53 AM,69.1,66.9,93,29.94,4.0,Calm,Calm,-,N/A,,Mostly Cloudy,0,2013-07-21 08:53:00
5:53 AM,69.1,68.0,96,29.95,5.0,Calm,Calm,-,N/A,,Overcast,0,2013-07-21 09:53:00
6:53 AM,69.1,68.0,96,29.96,7.0,Calm,Calm,-,N/A,,Overcast,0,2013-07-21 10:53:00
7:53 AM,71.1,69.1,93,29.98,6.0,Calm,Calm,-,N/A,,Overcast,0,2013-07-21 11:53:00
8:53 AM,72.0,69.1,91,29.99,6.0,Calm,Calm,-,N/A,,Overcast,0,2013-07-21 12:53:00
9:53 AM,73.9,69.1,85,30.00,8.0,SSW,3.5,-,N/A,,Mostly Cloudy,210,2013-07-21 13:53:00
10:53 AM,78.1,70.0,76,30.00,10.0,SW,8.1,-,N/A,,Mostly Cloudy,220,2013-07-21 14:53:00
11:15 AM,79.0,71.1,77,30.07,10.0,SW,6.9,-,N/A,,Scattered Clouds,220,2013-07-21 15:15:00
11:26 AM,79.0,71.1,77,30.07,10.0,SSW,4.6,-,N/A,,Mostly Cloudy,210,2013-07-21 15:26:00
11:53 AM,78.1,70.0,76,29.99,10.0,South,3.5,-,N/A,,Mostly Cloudy,190,2013-07-21 15:53:00
12:53 PM,78.1,71.1,79,29.98,10.0,SSE,5.8,-,0.00,Rain,Light Rain,150,2013-07-21 16:53:00
1:20 PM,75.9,66.9,74,30.06,10.0,Variable,6.9,-,0.01,,Overcast,0,2013-07-21 17:20:00
1:31 PM,73.9,66.9,79,30.06,8.0,Variable,3.5,-,0.01,Rain-Thunderstorm,Light Thunderstorms and Rain,0,2013-07-21 17:31:00
1:53 PM,75.0,66.9,76,29.99,10.0,Variable,3.5,-,0.03,Thunderstorm,Thunderstorm,0,2013-07-21 17:53:00
2:32 PM,73.0,68.0,84,30.05,7.0,SSW,5.8,-,0.01,Rain,Light Rain,200,2013-07-21 18:32:00
2:53 PM,72.0,68.0,87,29.97,8.0,South,3.5,-,0.03,Rain,Light Rain,180,2013-07-21 18:53:00
3:53 PM,75.9,71.1,85,29.94,8.0,South,8.1,-,0.01,,Mostly Cloudy,180,2013-07-21 19:53:00
4:53 PM,75.9,70.0,82,29.95,10.0,South,6.9,-,N/A,,Mostly Cloudy,190,2013-07-21 20:53:00
5:53 PM,73.9,69.1,85,29.93,9.0,Calm,Calm,-,0.01,Rain,Light Rain,0,2013-07-21 21:53:00
6:45 PM,73.9,69.1,85,29.99,10.0,SSW,5.8,-,0.00,,Overcast,210,2013-07-21 22:45:00
6:53 PM,75.0,69.1,82,29.92,10.0,South,5.8,-,0.00,,Overcast,180,2013-07-21 22:53:00
7:35 PM,73.0,68.0,84,29.99,10.0,SW,6.9,-,N/A,,Mostly Cloudy,220,2013-07-21 23:35:00
7:53 PM,73.0,68.0,84,29.92,10.0,SSW,4.6,-,N/A,,Overcast,210,2013-07-21 23:53:00
8:53 PM,72.0,68.0,87,29.94,10.0,Calm,Calm,-,N/A,,Overcast,0,2013-07-22 00:53:00
9:53 PM,71.1,68.0,90,29.96,10.0,WSW,3.5,-,N/A,,Overcast,250,2013-07-22 01:53:00
10:53 PM,70.0,66.9,90,29.96,10.0,WSW,4.6,-,N/A,,Mostly Cloudy,240,2013-07-22 02:53:00
11:53 PM,70.0,66.9,90,29.96,10.0,Calm,Calm,-,N/A,,Mostly Cloudy,0,2013-07-22 03:53:00